SCP
0 0 0 0 0 0 0 0 0 0 0 0 0 0 0 0 0 0 0 0 0 0 0 0 0 0 0 0 0 0 0 0 0 0 0 0 0 0 0 0 0 0 0
0 0 0 0 0 0 0 0 0 0 0 0 0 0 0 0 0 0 0 0 0 0 0 0 0 0 0 0 0 0 0 0 0 0 0 0 0 0 0 0 0 0 0
0 0 0 0 0 0 0 0 0 0 0 0 0 0 0 0 0 0 0 0 0 0 0 0 0 0 0 0 0 0 0 0 0 0 0 0 0 0 0 0 0 0 0
0 0 0 0 0 0 0 0 0 0 0 0 0 0 0 0 0 0 0 0 0 0 0 0 0 0 0 0 0 0 0 0 0 0 0 0 0 0 0 0 0 0 0
0 0 0 0 0 0 0 0 0 0 0 0 0 0 0 0 0 0 0 0 0 0 0 0 0 0 0 0 0 0 0 0 0 0 0 0 0 0 0 0 0 0 0
0 0 0 0 0 0 0 0 0 0 0 0 0 0 0 0 0 0 0 0 0 0 0 0 0 0 0 0 0 0 0 0 0 0 0 0 0 0 0 0 0 0 0
0 0 0 0 0 0 0 0 0 0 0 0 0 0 0 0 0 0 0 0 0 0 0 0 0 0 0 0 0 0 0 0 0 0 0 0 0 0 0 0 0 0 0
0 0 0 0 0 0 0 0 0 0 0 0 0 0 0 0 0 0 0 0 0 0 0 0 0 0 0 0 0 0 0 0 0 0 0 0 0 0 0 0 0 0 0
0 0 0 0 0 0 0 0 0 0 0 0 0 0 0 0 0 0 0 0 0 0 0 0 0 0 0 0 0 0 0 0 0 0 0 0 0 0 0 0 0 0 0
0 0 0 0 0 0 0 0 0 0 0 0 0 0 0 0 0 0 0 0 0 0 0 0 0 0 0 0 0 0 0 0 0 0 0 0 0 0 0 0 0 0 0
0 0 0 0 0 0 0 0 0 0 0 0 0 0 0 0 0 0 0 0 0 0 0 0 0 0 0 0 0 0 0 0 0 0 0 0 0 0 0 0 0 0 0
0 0 0 0 0 0 0 0 0 0 0 0 0 0 0 0 0 0 0 0 0 0 0 0 0 0 0 0 0 0 0 0 0 0 0 0 0 0 0 0 0 0 0
0 0 0 0 0 0 0 0 0 0 0 0 0 0 0 0 0 0 0 0 0 0 0 0 0 0 0 0 0 0 0 0 0 0 0 0 0 0 0 0 0 0 0
0 0 0 0 0 0 0 0 0 0 0 0 0 0 0 0 0 0 0 0 0 0 0 0 0 0 0 0 0 0 0 0 0 0 0 0 0 0 0 0 0 0 0
0 0 0 0 0 0 0 0 0 0 0 0 0 0 0 0 0 0 0 0 0 0 0 0 0 0 0 0 0 0 0 0 0 0 0 0 0 0 0 0 0 0 0
0 0 0 0 0 0 0 0 0 0 0 0 0 0 0 0 0 0 0 0 0 0 0 0 0 0 0 0 0 0 0 0 0 0 0 0 0 0 0 0 0 0 0
0 0 0 0 0 0 0 0 0 0 0 0 0 0 0 0 0 0 0 0 0 0 0 0 0 0 0 0 0 0 0 0 0 0 0 0 0 0 0 0 0 0 0
0 0 0 0 0 0 0 0 0 0 0 0 0 0 0 0 0 0 0 0 0 0 0 0 0 0 0 0 0 0 0 0 0 0 0 0 0 0 0 0 0 0 0
0 0 0 0 0 0 0 0 0 0 0 0 0 0 0 0 0 0 0 0 0 0 0 0 0 0 0 0 0 0 0 0 0 0 0 0 0 0 0 0 0 0 0
0 0 0 0 0 0 0 0 0 0 0 0 0 0 0 0 0 0 0 0 0 0 0 0 0 0 0 0 0 0 0 0 0 0 0 0 0 0 0 0 0 0 0
0 0 0 0 0 0 0 0 0 0 0 0 0 0 0 0 0 0 0 0 0 0 0 0 0 0 0 0 0 0 0 0 0 0 0 0 0 0 0 0 0 0 0
0 0 0 0 0 0 0 0 0 0 0 0 0 0 0 0 0 0 0 0 0 0 0 0 0 0 0 0 0 0 0 0 0 0 0 0 0 0 0 0 0 0 0
0 0 0 0 0 0 0 0 0 0 0 0 0 0 0 0 0 0 0 0 0 0 0 0 0 0 0 0 0 0 0 0 0 0 0 0 0 0 0 0 0 0 0
0 0 0 0 0 0 0 0 0 0 0 0 0 0 0 0 0 0 0 0 0 0 0 0 0 0 0 0 0 0 0 0 0 0 0 0 0 0 0 0 0 0 0
0 0 0 0 0 0 0 0 0 0 0 0 0 0 0 0 0 0 0 0 0 0 0 0 0 0 0 0 0 0 0 0 0 0 0 0 0 0 0 0 0 0 0
0 0 0 0 0 0 0 0 0 0 0 0 0 0 0 0 0 0 0 0 0 0 0 0 0 0 0 0 0 0 0 0 0 0 0 0 0 0 0 0 0 0 0
Wind_Speed
4 3 3 2 3 2 2 2 1 1 0 0 1 1 1 2 2 2 3 7 8 9 10 10 10 10 10 10 10 11 11 11 11 11 12 12 12 12 13 13 13 13 13
4 4 4 3 3 3 3 2 2 1 1 1 2 2 3 3 3 4 3 5 9 11 13 13 13 13 14 14 14 14 14 14 14 14 15 15 15 15 16 16 16 16 16
5 5 4 4 4 3 3 2 2 1 1 2 3 4 3 4 4 5 5 4 5 9 13 15 16 16 16 17 17 17 17 17 17 17 17 18 18 18 18 19 19 19 19
6 5 4 4 4 3 3 2 2 1 2 2 3 3 3 4 6 6 6 5 5 5 8 14 16 17 18 18 19 19 19 19 19 19 19 19 20 21 21 22 22 22 22
6 5 4 4 4 3 2 2 2 2 2 3 3 4 4 5 6 6 7 7 6 6 5 9 12 14 17 19 20 20 21 21 21 20 20 20 21 21 22 23 23 24 25
6 5 4 4 4 3 3 2 3 2 2 2 3 5 5 6 5 6 7 6 5 6 5 6 6 8 14 18 19 20 21 22 22 22 21 21 21 22 22 23 24 25 26
7 6 4 4 4 4 4 4 3 3 2 1 1 4 4 5 5 5 4 4 5 5 5 5 5 5 6 14 17 19 21 22 23 23 22 22 22 23 23 24 24 25 26
7 6 6 5 5 4 4 4 3 2 2 2 2 2 4 5 3 3 3 3 5 4 5 6 6 6 6 5 10 19 20 22 23 23 23 23 23 24 24 25 25 25 26
6 6 6 5 5 4 4 4 4 4 3 2 3 2 2 3 4 3 3 3 3 3 4 5 6 7 7 6 7 13 18 21 22 23 24 24 24 25 25 26 26 27 27
6 6 6 5 4 4 4 4 4 4 3 3 2 3 4 2 3 5 4 3 3 4 5 5 5 6 6 6 8 12 16 19 21 22 23 24 25 26 26 27 27 28 28
3 4 4 4 4 3 3 3 3 3 3 2 2 2 3 3 4 5 7 5 4 4 4 5 5 5 6 6 5 9 14 17 19 20 22 24 25 26 27 28 28 29 29
2 2 3 3 2 2 2 1 1 1 1 1 1 1 2 2 2 3 6 8 7 5 5 5 5 5 5 4 6 11 14 17 19 20 21 23 25 26 28 28 29 30 30
2 3 4 4 3 3 3 3 3 2 1 1 1 1 1 2 2 3 5 7 7 5 4 3 4 3 3 4 5 12 12 16 20 21 22 23 25 26 27 28 29 30 30
4 4 5 5 5 5 4 4 4 3 3 2 2 2 1 2 2 2 3 6 9 6 3 4 2 2 4 4 8 14 10 16 20 23 24 24 25 26 27 28 29 29 29
5 6 6 6 5 5 5 5 4 3 3 3 3 3 2 2 2 2 2 3 5 9 8 3 2 3 4 4 10 9 9 16 21 24 24 25 25 26 26 27 27 28 28
6 7 7 6 6 6 5 5 4 4 4 3 3 3 3 3 3 3 3 3 3 6 9 5 4 4 5 6 12 9 10 18 18 21 23 24 25 25 26 26 26 27 28
7 7 6 6 6 6 5 5 4 4 4 3 3 4 4 4 3 3 3 3 3 4 10 10 5 6 8 9 9 7 9 9 10 19 22 24 24 24 24 25 25 25 26
7 6 6 6 6 5 5 5 4 4 4 3 4 4 4 4 4 4 4 4 4 5 7 14 10 8 9 9 10 10 9 9 9 17 22 23 22 22 23 23 24 24 24
7 6 6 6 6 5 4 4 4 3 3 3 3 4 4 4 4 4 4 5 5 6 6 9 12 8 8 7 10 9 9 8 9 13 18 19 20 22 22 22 22 23 23
7 6 6 5 5 4 4 3 3 3 3 3 3 3 4 4 4 5 5 5 5 6 6 8 10 9 8 8 7 9 11 8 8 8 11 14 17 19 21 22 22 21 22
6 6 6 5 4 3 3 3 2 2 2 3 3 3 4 5 6 6 6 6 6 6 7 8 9 9 9 9 9 8 12 12 10 5 7 8 8 8 10 15 17 19 21
5 5 5 4 4 2 5 5 3 2 2 2 3 4 4 4 6 10 11 11 10 9 9 8 9 11 12 11 10 10 11 12 11 5 7 10 6 7 7 7 15 20 21
5 5 4 4 3 3 5 5 4 2 2 2 3 4 4 4 6 6 9 11 10 12 13 10 11 11 12 11 11 12 11 12 12 9 9 11 7 7 7 9 18 20 20
4 3 3 3 3 3 5 5 4 2 2 3 3 4 5 6 6 8 7 7 7 7 10 7 8 10 10 9 8 10 11 11 10 6 5 8 7 7 7 7 14 19 20
3 3 2 2 2 3 5 6 5 1 2 3 4 4 5 6 11 14 9 9 10 8 10 13 14 13 15 16 12 7 8 8 10 7 3 5 6 8 6 4 8 17 19
3 3 2 2 2 2 5 6 6 1 2 3 4 4 6 9 13 14 8 8 10 9 8 8 9 10 9 9 12 6 6 7 7 7 4 5 5 6 7 4 5 7 10
Wind_Direction
166 171 175 179 183 179 180 183 190 196 210 299 309 308 306 299 279 263 265 257 256 261 269 274 274 270 266 263 262 261 262 262 261 260 259 258 257 255 253 250 248 246 243
170 173 179 185 191 190 189 188 195 205 240 270 280 279 276 278 272 271 262 263 261 262 266 272 276 276 275 273 269 265 262 260 257 255 254 254 254 254 252 250 248 247 245
176 175 178 188 196 189 185 184 198 205 248 263 271 274 274 272 269 267 263 255 258 260 262 269 274 277 278 279 278 275 272 268 263 258 254 251 250 250 250 249 248 247 246
180 177 183 196 193 182 182 188 193 221 254 262 271 274 271 273 270 266 265 261 258 261 265 270 273 277 280 281 282 282 281 279 275 270 264 259 255 253 251 249 247 246 245
182 180 191 196 183 180 191 196 200 205 248 264 271 277 273 268 269 270 270 270 265 263 263 273 273 275 279 282 284 286 286 286 284 281 276 271 265 261 258 254 251 248 246
188 184 191 193 180 184 199 201 214 218 241 260 280 281 272 264 263 263 269 275 273 269 268 271 275 277 278 282 285 287 288 289 289 288 286 283 278 273 268 263 258 254 251
192 189 189 189 186 199 209 201 200 227 247 218 287 301 291 269 263 264 264 271 277 277 278 275 274 273 279 283 286 288 290 292 293 293 293 291 289 286 281 276 270 264 259
196 193 194 196 195 201 209 204 193 199 232 186 203 301 314 319 314 274 268 266 274 288 284 279 275 271 270 274 278 286 290 293 295 296 297 296 295 293 290 287 284 279 273
199 195 198 197 195 194 209 211 199 202 229 222 201 214 269 288 314 300 282 272 275 276 276 277 274 272 270 269 275 283 286 290 293 296 297 298 298 297 295 293 289 286 283
199 196 193 193 192 193 204 209 201 204 212 235 219 226 238 265 285 303 301 288 284 280 277 276 277 276 273 271 271 275 282 288 291 294 297 298 298 297 295 294 293 291 289
186 182 177 177 183 189 199 199 197 206 209 226 221 222 237 244 234 266 291 299 303 280 278 277 278 278 280 279 283 290 291 294 295 296 297 298 298 297 296 295 293 292 290
105 114 130 135 140 145 161 173 173 178 207 233 248 237 242 260 266 266 286 299 297 290 280 270 270 277 287 298 301 307 306 308 308 307 303 301 299 298 297 295 294 293 291
106 97 98 98 95 91 86 89 90 75 65 62 319 291 279 279 291 288 292 299 296 289 275 273 268 290 317 325 321 323 317 316 314 311 308 305 303 301 299 297 296 294 293
113 102 95 90 85 84 83 82 80 70 61 55 30 7 338 326 321 308 302 308 306 297 273 276 302 334 343 335 326 324 318 316 313 311 309 306 304 302 301 299 297 296 295
104 96 92 88 80 76 75 78 72 60 58 47 31 17 0 343 338 330 319 310 305 304 303 283 327 349 339 328 324 319 314 313 312 311 309 307 306 304 303 301 300 299 297
100 97 90 86 79 71 68 73 69 54 57 41 27 23 10 348 345 341 330 318 300 294 292 300 314 323 326 321 317 312 307 310 308 309 309 309 307 306 305 304 303 301 300
98 97 97 93 87 79 74 75 69 57 55 38 24 17 1 351 346 340 335 327 313 303 292 299 309 320 321 319 315 308 307 305 307 310 311 311 310 309 308 307 307 306 305
93 94 95 92 87 81 75 75 71 57 49 32 13 5 352 348 343 339 335 324 317 312 301 303 310 316 314 314 312 311 311 309 304 309 313 313 314 314 314 312 310 309 308
95 90 91 91 89 86 80 71 70 57 44 25 5 353 342 342 336 333 325 317 314 309 301 299 304 309 308 311 312 308 303 300 302 309 313 315 317 318 316 314 314 313 312
99 93 88 88 89 91 86 79 69 57 34 10 351 339 332 330 322 321 314 308 305 304 300 299 302 307 308 310 312 317 317 314 308 309 312 316 317 318 316 316 315 315 314
95 96 92 85 82 87 81 80 73 50 18 352 339 328 320 317 314 316 312 309 308 304 304 303 303 308 311 320 321 318 315 315 306 299 310 309 309 307 311 314 317 318 320
96 95 92 93 84 69 58 55 57 43 0 337 326 322 315 310 313 319 316 313 311 308 306 303 303 306 309 313 315 316 315 316 312 319 318 308 305 306 310 310 319 325 327
103 97 90 85 75 51 45 40 40 29 337 320 315 316 317 311 306 300 305 309 304 299 300 297 297 301 305 311 312 311 311 309 301 307 311 302 307 307 313 318 326 330 332
104 101 87 74 67 36 27 24 17 17 327 313 306 303 304 307 307 312 305 299 292 288 294 293 285 291 298 303 301 302 303 301 292 291 301 297 309 312 315 315 330 338 339
104 95 88 72 58 17 12 10 10 348 328 313 303 298 298 299 310 319 314 305 303 298 303 302 301 304 310 316 319 315 315 315 310 311 329 308 309 313 309 313 335 347 348
110 100 81 60 43 3 358 1 1 344 316 311 310 306 304 314 317 320 312 304 304 307 309 309 309 311 312 314 323 319 311 309 309 307 336 328 311 324 316 315 338 345 349